Weather History for KHBV - July, 2013

Change the Weather History Date:

Wednesday, July 3, 2013

  Actual Average (KLRD) Record (KLRD)
Temperature  
Mean Temperature 82 °F 88 °F  
Max Temperature 94 °F 99 °F 110 °F (2005)
Min Temperature 70 °F 77 °F 66 °F (1924)
Degree Days  
Heating Degree Days 0 0  
Month to date heating degree days 0  
Since 1 June heating degree days 0  
Since 1 July heating degree days 0  
Cooling Degree Days 17 23  
Month to date cooling degree days 69  
Year to date cooling degree days 1872  
Since 1 June cooling degree days 729  
Growing Degree Days 32 (Base 50)    
Moisture  
Dew Point 52 °F    
Average Humidity 40    
Maximum Humidity 75    
Minimum Humidity 15    
Precipitation  
Precipitation 0.00 in 0.08 in 1.99 in (1985)
Month to date precipitation 0.25  
Year to date precipitation 9.35  
Sea Level Pressure  
Sea Level Pressure 29.98 in    
Wind  
Wind Speed 6 mph (SSE)    
Max Wind Speed 14 mph    
Max Gust Speed 20 mph    
Visibility 10 miles    
Events      
T = Trace of Precipitation, MM = Missing Value Source: NWS Daily Summary

Daily Weather History Graph

Daily Weather History Graph

Search for Another Location

Airport or City:

Trip Planner

Search our weather history database for the weather conditions in past years. The results will help you decide how hot, cold, wet, or windy it might be!

Date:

Astronomy

Jul. 03, 2013 Rise Set
Actual Time 6:44 AM CDT 8:33 PM CDT
Civil Twilight 6:18 AM CDT 9:00 PM CDT
Nautical Twilight 5:46 AM CDT 9:32 PM CDT
Astronomical Twilight 5:12 AM CDT 10:05 PM CDT
Moon 3:13 AM CDT 4:53 PM CDT
Length of Visible Light 14h 42m
Length of Day
13h 49m
Waning Crescent, 18% of the Moon is Illuminated
Jul 3
Waning Crescent
Jul 8
New
Jul 15
First Quarter
Jul 22
Full
Jul 29
Last Quarter

Hourly Weather History & Observations

Time (CDT) Temp. Heat Index Dew Point Humidity Pressure Visibility Wind Dir Wind Speed Gust Speed Precip Events Conditions
12:15 AM 75.6 °F - 57.0 °F 52% 30.03 in 10.0 mi SW 4.6 mph - N/A   Clear
12:35 AM 74.8 °F - 56.8 °F 53% 30.03 in 10.0 mi South 4.6 mph - N/A   Clear
12:55 AM 74.3 °F - 56.7 °F 54% 30.03 in 10.0 mi SSW 4.6 mph - N/A   Clear
1:15 AM 73.9 °F - 56.5 °F 54% 30.03 in 10.0 mi SW 4.6 mph - N/A   Clear
1:35 AM 73.6 °F - 56.5 °F 55% 30.03 in 10.0 mi SSW 4.6 mph - N/A   Clear
1:55 AM 73.6 °F - 56.8 °F 56% 30.02 in 10.0 mi SW 4.6 mph - N/A   Clear
2:15 AM 74.8 °F - 58.8 °F 57% 30.02 in 10.0 mi SSW 6.9 mph - N/A   Clear
2:35 AM 75.6 °F - 60.6 °F 60% 30.01 in 10.0 mi SW 6.9 mph - N/A   Clear
2:55 AM 75.4 °F - 61.0 °F 61% 30.01 in 10.0 mi SW 6.9 mph - N/A   Clear
3:15 AM 75.2 °F - 61.2 °F 62% 30.00 in 10.0 mi SW 5.8 mph - N/A   Clear
3:35 AM 74.7 °F - 61.5 °F 63% 30.00 in 10.0 mi SW 4.6 mph - N/A   Clear
3:55 AM 74.1 °F - 61.7 °F 65% 30.00 in 10.0 mi SSW 4.6 mph - N/A   Clear
4:15 AM 73.6 °F - 61.9 °F 67% 30.00 in 10.0 mi SSW 5.8 mph - N/A   Clear
4:35 AM 72.9 °F - 62.1 °F 69% 30.00 in 10.0 mi SW 4.6 mph - N/A   Clear
4:55 AM 72.5 °F - 62.1 °F 70% 30.00 in 10.0 mi SSW 4.6 mph - N/A   Clear
5:15 AM 72.5 °F - 62.2 °F 70% 30.00 in 10.0 mi SSW 4.6 mph - N/A   Clear
5:35 AM 72.0 °F - 62.2 °F 71% 30.00 in 10.0 mi SSW 3.5 mph - N/A   Clear
5:55 AM 71.4 °F - 62.1 °F 72% 30.00 in 10.0 mi SSW 3.5 mph - N/A   Clear
6:15 AM 70.7 °F - 62.1 °F 74% 30.00 in 10.0 mi SW 4.6 mph - N/A   Clear
6:35 AM 70.3 °F - 62.1 °F 75% 30.00 in 10.0 mi SW 4.6 mph - N/A   Clear
6:55 AM 70.2 °F - 61.9 °F 75% 30.00 in 10.0 mi SSW 4.6 mph - N/A   Clear
7:15 AM 70.0 °F - 61.9 °F 75% 30.01 in 10.0 mi SW 4.6 mph - N/A   Clear
7:35 AM 71.2 °F - 62.1 °F 73% 30.02 in 10.0 mi SW 4.6 mph - N/A   Clear
7:55 AM 72.3 °F - 62.2 °F 70% 30.02 in 10.0 mi SW 3.5 mph - N/A   Clear
8:15 AM 73.9 °F - 62.2 °F 67% 30.03 in 10.0 mi SW 3.5 mph - N/A   Clear
8:35 AM 77.4 °F - 61.9 °F 59% 30.03 in 10.0 mi Calm Calm - N/A   Clear
8:55 AM 79.9 °F - 60.8 °F 52% 30.03 in 10.0 mi SW 5.8 mph - N/A   Clear
9:15 AM 82.6 °F 82.8 °F 59.7 °F 46% 30.04 in 10.0 mi SW 4.6 mph - N/A   Clear
9:35 AM 84.6 °F 83.7 °F 57.4 °F 39% 30.04 in 10.0 mi SW 3.5 mph - N/A   Clear
9:55 AM 85.8 °F 84.3 °F 54.9 °F 35% 30.04 in 10.0 mi SSW 4.6 mph - N/A   Clear
10:15 AM 86.4 °F 84.4 °F 53.2 °F 32% 30.04 in 10.0 mi SSE 5.8 mph - N/A   Clear
10:35 AM 86.9 °F - 52.0 °F 30% 30.04 in 10.0 mi SSW 3.5 mph - N/A   Clear
10:55 AM 88.0 °F - 50.0 °F 27% 30.04 in 10.0 mi East 5.8 mph - N/A   Clear
11:15 AM 88.7 °F - 48.0 °F 24% 30.03 in 10.0 mi Calm Calm - N/A   Clear
11:35 AM 88.3 °F - 47.7 °F 24% 30.03 in 10.0 mi NE 5.8 mph - N/A   Clear
11:55 AM 88.7 °F - 47.8 °F 24% 30.03 in 10.0 mi Calm Calm - N/A   Clear
12:15 PM 90.0 °F - 47.1 °F 23% 30.03 in 10.0 mi SSE 3.5 mph - N/A   Clear
12:35 PM 90.5 °F - 44.8 °F 20% 30.02 in 10.0 mi SE 5.8 mph - N/A   Mostly Cloudy
12:55 PM 91.2 °F - 43.3 °F 19% 30.01 in 10.0 mi South 3.5 mph - N/A   Scattered Clouds
1:15 PM 91.6 °F - 44.1 °F 19% 30.01 in 10.0 mi North 4.6 mph - N/A   Clear
1:35 PM 92.8 °F - 41.5 °F 17% 30.00 in 10.0 mi Calm Calm - N/A   Clear
1:55 PM 92.8 °F - 40.6 °F 16% 30.00 in 10.0 mi ESE 8.1 mph - N/A   Scattered Clouds
2:15 PM 93.2 °F - 40.3 °F 16% 29.98 in 10.0 mi East 6.9 mph - N/A   Scattered Clouds
2:35 PM 93.4 °F - 40.8 °F 16% 29.98 in 10.0 mi ENE 9.2 mph - N/A   Clear
2:55 PM 94.3 °F - 40.6 °F 16% 29.96 in 10.0 mi NE 3.5 mph 18.4 mph N/A   Clear
3:15 PM 94.1 °F - 39.4 °F 15% 29.95 in 10.0 mi ESE 8.1 mph - N/A   Scattered Clouds
3:35 PM 93.6 °F - 41.4 °F 16% 29.95 in 10.0 mi Calm Calm - N/A   Scattered Clouds
3:55 PM 94.1 °F - 40.6 °F 16% 29.94 in 10.0 mi Calm Calm - N/A   Scattered Clouds
4:15 PM 94.6 °F - 40.1 °F 15% 29.93 in 10.0 mi ENE 10.4 mph 16.1 mph N/A   Clear
4:35 PM 94.3 °F - 41.4 °F 16% 29.93 in 10.0 mi East 5.8 mph - N/A   Scattered Clouds
4:55 PM 93.4 °F - 41.7 °F 17% 29.92 in 10.0 mi East 5.8 mph 16.1 mph N/A   Mostly Cloudy
5:15 PM 93.4 °F - 41.5 °F 17% 29.91 in 10.0 mi ESE 4.6 mph - N/A   Scattered Clouds
5:35 PM 93.9 °F - 41.5 °F 16% 29.90 in 10.0 mi ENE 8.1 mph - N/A   Scattered Clouds
5:55 PM 94.5 °F - 41.9 °F 16% 29.90 in 10.0 mi ENE 11.5 mph - N/A   Mostly Cloudy
6:15 PM 93.7 °F - 42.6 °F 17% 29.89 in 10.0 mi ENE 11.5 mph - N/A   Overcast
6:35 PM 93.0 °F - 42.8 °F 18% 29.89 in 10.0 mi ENE 9.2 mph - N/A   Mostly Cloudy
6:55 PM 92.3 °F - 46.6 °F 21% 29.90 in 10.0 mi East 13.8 mph - N/A   Overcast
7:15 PM 90.5 °F - 48.6 °F 24% 29.90 in 10.0 mi East 13.8 mph - N/A   Mostly Cloudy
7:35 PM 89.8 °F - 49.1 °F 25% 29.91 in 10.0 mi East 13.8 mph - N/A   Scattered Clouds
7:55 PM 89.2 °F - 49.1 °F 25% 29.91 in 10.0 mi East 10.4 mph - N/A   Clear
8:15 PM 88.7 °F - 49.5 °F 26% 29.91 in 10.0 mi East 10.4 mph - N/A   Scattered Clouds
8:35 PM 87.8 °F - 50.4 °F 27% 29.92 in 10.0 mi East 10.4 mph 19.6 mph N/A   Mostly Cloudy
8:55 PM 86.7 °F - 50.4 °F 28% 29.92 in 10.0 mi East 12.7 mph 17.3 mph N/A   Scattered Clouds
9:15 PM 85.5 °F - 51.4 °F 31% 29.93 in 10.0 mi East 11.5 mph - N/A   Scattered Clouds
9:35 PM 84.6 °F - 51.8 °F 32% 29.93 in 10.0 mi East 10.4 mph - N/A   Clear
9:55 PM 83.7 °F - 52.3 °F 34% 29.94 in 10.0 mi East 11.5 mph - N/A   Clear
10:15 PM 82.8 °F 81.6 °F 53.4 °F 36% 29.94 in 10.0 mi ESE 9.2 mph - N/A   Clear
10:35 PM 81.9 °F 81.1 °F 54.0 °F 38% 29.95 in 10.0 mi ESE 8.1 mph - N/A   Clear
10:55 PM 81.1 °F 80.7 °F 54.1 °F 39% 29.96 in 10.0 mi SE 6.9 mph - N/A   Clear
11:15 PM 81.0 °F 80.5 °F 53.8 °F 39% 29.98 in 10.0 mi SE 9.2 mph - N/A   Mostly Cloudy
11:35 PM 81.0 °F 80.6 °F 54.5 °F 40% 29.98 in 10.0 mi SE 10.4 mph - N/A   Overcast
11:55 PM 80.6 °F 80.5 °F 55.2 °F 42% 29.97 in 10.0 mi SE 12.7 mph 17.3 mph N/A   Mostly Cloudy